Location: Cantaing
(50.1487°N, 3.1675°E)
Time: 16:46:15
(UTC+00:00)

ISS - Pass Details

Date: 11 March 2026
Orbit: 416 x 425 km, 51.6° (Epoch: 18 April)

Event Time Altitude Azimuth Distance (km) Brightness Sun altitude
Rises 20:12:52 0° 232° (SW) 2,378 0.4 -23.8°
Reaches altitude 10° 20:15:00 10° 226° (SW) 1,513 -0.7 -24.1°
Enters shadow 20:15:25 13° 224° (SW) 1,352 -1.0 -24.1°
